CZ-2D R/B, 41858

Orbit data source: Space-Track

CZ-2D R/B, 41858 is space debris in SSO originally from a launch on Fri, 11 Nov 2016 UTC launched from the Jiuquan Satellite Launch Center, China (JSC). Debris objects in space refer to the collection of defunct objects orbiting the Earth. Examples of debris include non-operational satellites, rocket bodies, and fragments generated from explosions, collisions, or faulty payload assembly.

Loading next visibility...
Identifier
41858, 2016-068B
Orbit
SSO
Last TLE update
5 hours ago
Origin
Manufacturer
BWYIC
Mission
Spacecraft
Bus & Motor
CZ-2 STAGE 2, Unknown motor
Mass
4,006 kg wet, 4,006 kg dry
Launch date (UTC)
2016-11-11 (9 years ago)
Launch vehicle
Unknown
Launch site
Jiuquan Satellite Launch Center, China (JSC)
Object type
Payload
Rocket body
Debris
Shape & HBR
Cyl + 1 Sail, 8 m
Radar Cross Section
25.456 m², Large (>1 m²)

Expand to show TLE details & history

TLE from 5 hours ago
0 CZ-2D R/B
1 41858U 16068B   25182.23150671  .00000108  00000-0  51144-4 0  9998
2 41858  98.6201 181.3584 0033864 140.0662 220.3024 14.36954869452567
Epoch: 2025-07-01T05:33Z
TLE epoch observation values (Epoch: 2025-07-01T05:33:22.179Z)
Latitude
-0.00006°
Longitude
178.48607°
Altitude
790.013 km
Speed
7.449 km/s
True Right ascension
12h 05m 26s
True Declination
0° 00' 00"
Sunlit
Object was in daylight at epoch
Visualization orbit readout
Latitude
-55.66508°
Longitude
-168.5619°
Altitude
813.419 km
Speed
7.433 km/s
Apparent Right ascension
11h 18m 08s
Apparent Declination
-50° 19' 26"
Sunlit
Object is in daylight
Visualization observer readout
Local Sidereal Time
21:56:45
Azimuth
227.108° WSW
Elevation
-72.363°
Doppler factor
1
Orbital elements
Apogee altitude
789.901 km
Perigee altitude
741.517 km
Semi-major axis
7,143.846 km
Eccentricity
0.00339
Inclination
98.6201°
RAAN
181.3584°
Arg. of periapsis
140.0662°
True anomaly
Unknown
Mean anomaly
220.3024°
Eccentric anomaly
Unknown
Mean motion
3.59455 °/min
Orbital period
100.15 mins
BSTAR
0.000051144
Loading maneuver chart data...
Loading SW <> Apogee altitude chart data...
Loading historical data...
Loading historical data...
Loading historical data...
Loading historical data...
Loading historical data...
Loading historical data...
Loading historical data...

CZ-2D R/B Visibility forecast

Observer location: undefined°, undefined°

Span
Click to sort rows by Start time (UTC) header in descending order
Start Az.
Max El. time (UTC)
Max El. Az.
Max El.
End time (UTC)
End Az.
9 mins2025-07-01 12:48:20.199Z14.863° NNE2025-07-01 12:53:20.199Z127.309° SE44.779°2025-07-01 12:57:20.199Z191.658° SSW
8 mins2025-07-02 00:04:20.199Z174.764° S2025-07-02 00:07:20.199Z237.459° WSW43.888°2025-07-02 00:12:20.199Z342.808° N
|